Time,TemperatureF,DewpointF,PressureIn,WindDirection,WindDirectionDegrees,WindSpeedMPH,WindSpeedGustMPH,Humidity,HourlyPrecipIn,Conditions,Clouds,dailyrainin,SoftwareType,DateUTC
2013-05-31 00:01:00,71.1,56.8,30.11,South,191,8.0,8.0,61,0.00,,,0.00,meteohub,2013-05-31 04:01:00,
2013-05-31 00:02:00,70.9,56.3,30.11,SSE,167,3.0,8.0,60,0.00,,,0.00,meteohub,2013-05-31 04:02:00,
2013-05-31 00:07:00,70.7,55.6,30.11,SSE,165,3.0,8.0,59,0.00,,,0.00,meteohub,2013-05-31 04:07:00,
2013-05-31 00:12:00,70.3,54.3,30.11,South,173,4.0,8.0,57,0.00,,,0.00,meteohub,2013-05-31 04:12:00,
2013-05-31 00:17:00,70.2,54.1,30.11,South,172,2.0,8.0,57,0.00,,,0.00,meteohub,2013-05-31 04:17:00,
2013-05-31 00:22:00,70.2,53.8,30.11,SSE,160,1.0,6.0,56,0.00,,,0.00,meteohub,2013-05-31 04:22:00,
2013-05-31 00:27:00,70.0,53.1,30.11,South,181,2.0,7.0,55,0.00,,,0.00,meteohub,2013-05-31 04:27:00,
2013-05-31 00:32:00,70.0,53.1,30.11,WSW,237,3.0,7.0,55,0.00,,,0.00,meteohub,2013-05-31 04:32:00,
2013-05-31 00:37:00,69.8,52.3,30.11,South,174,3.0,7.0,54,0.00,,,0.00,meteohub,2013-05-31 04:37:00,
2013-05-31 00:42:00,69.6,51.8,30.11,SSE,167,3.0,6.0,53,0.00,,,0.00,meteohub,2013-05-31 04:42:00,
2013-05-31 00:47:00,69.6,51.3,30.11,SSW,204,1.0,5.0,52,0.00,,,0.00,meteohub,2013-05-31 04:47:00,
2013-05-31 00:52:00,69.4,51.1,30.12,ESE,121,0.0,5.0,52,0.00,,,0.00,meteohub,2013-05-31 04:52:00,
2013-05-31 00:57:00,69.4,50.5,30.11,South,186,0.0,5.0,51,0.00,,,0.00,meteohub,2013-05-31 04:57:00,
2013-05-31 01:02:00,69.4,50.0,30.12,WSW,243,0.0,4.0,50,0.00,,,0.00,meteohub,2013-05-31 05:02:00,
2013-05-31 01:07:00,69.3,51.4,30.12,West,264,0.0,3.0,53,0.00,,,0.00,meteohub,2013-05-31 05:07:00,
2013-05-31 01:12:00,68.7,50.4,30.12,West,264,0.0,3.0,52,0.00,,,0.00,meteohub,2013-05-31 05:12:00,
2013-05-31 01:17:00,68.2,49.3,30.12,North,355,2.0,2.0,51,0.00,,,0.00,meteohub,2013-05-31 05:17:00,
2013-05-31 01:22:00,67.3,42.8,30.12,North,359,2.0,3.0,41,0.00,,,0.00,meteohub,2013-05-31 05:22:00,
2013-05-31 01:27:00,67.3,40.1,30.12,North,352,0.0,4.0,37,0.00,,,0.00,meteohub,2013-05-31 05:27:00,
2013-05-31 01:32:00,66.9,39.0,30.12,North,3,2.0,4.0,36,0.00,,,0.00,meteohub,2013-05-31 05:32:00,
2013-05-31 01:37:00,66.4,37.2,30.12,North,4,0.0,4.0,34,0.00,,,0.00,meteohub,2013-05-31 05:37:00,
2013-05-31 01:42:00,66.2,33.1,30.12,North,3,0.0,3.0,29,0.00,,,0.00,meteohub,2013-05-31 05:42:00,
2013-05-31 01:47:00,65.7,34.2,30.12,North,1,0.0,3.0,31,0.00,,,0.00,meteohub,2013-05-31 05:47:00,
2013-05-31 01:52:00,65.8,27.0,30.12,NNW,342,0.0,2.0,23,0.00,,,0.00,meteohub,2013-05-31 05:52:00,
2013-05-31 01:57:00,65.7,25.7,30.12,NNW,342,0.0,2.0,22,0.00,,,0.00,meteohub,2013-05-31 05:57:00,
2013-05-31 02:02:00,65.8,23.7,30.12,NNW,342,0.0,1.0,20,0.00,,,0.00,meteohub,2013-05-31 06:02:00,
2013-05-31 02:07:00,65.8,24.8,30.12,NNW,342,0.0,0.0,21,0.00,,,0.00,meteohub,2013-05-31 06:07:00,
2013-05-31 02:12:00,66.0,17.1,30.12,West,269,0.0,1.0,15,0.00,,,0.00,meteohub,2013-05-31 06:12:00,
2013-05-31 02:17:00,66.4,21.6,30.12,SSE,158,0.0,1.0,18,0.00,,,0.00,meteohub,2013-05-31 06:17:00,
2013-05-31 02:22:00,66.4,28.4,30.12,South,173,1.0,1.0,24,0.00,,,0.00,meteohub,2013-05-31 06:22:00,
2013-05-31 02:27:00,66.4,29.5,30.11,South,176,0.0,2.0,25,0.00,,,0.00,meteohub,2013-05-31 06:27:00,
2013-05-31 02:32:00,66.4,27.5,30.11,South,186,1.0,2.0,23,0.00,,,0.00,meteohub,2013-05-31 06:32:00,
2013-05-31 02:37:00,66.6,27.7,30.11,SSW,208,0.0,2.0,23,0.00,,,0.00,meteohub,2013-05-31 06:37:00,
2013-05-31 02:42:00,66.7,29.8,30.11,SSW,201,1.0,2.0,25,0.00,,,0.00,meteohub,2013-05-31 06:42:00,
2013-05-31 02:47:00,66.7,30.7,30.11,SSW,208,1.0,2.0,26,0.00,,,0.00,meteohub,2013-05-31 06:47:00,
2013-05-31 02:52:00,66.7,29.8,30.11,SW,226,1.0,2.0,25,0.00,,,0.00,meteohub,2013-05-31 06:52:00,
2013-05-31 02:57:00,66.9,30.9,30.11,SW,226,1.0,3.0,26,0.00,,,0.00,meteohub,2013-05-31 06:57:00,
2013-05-31 03:02:00,66.9,32.7,30.11,WSW,240,1.0,3.0,28,0.00,,,0.00,meteohub,2013-05-31 07:02:00,
2013-05-31 03:07:00,67.1,34.7,30.11,WSW,246,0.0,3.0,30,0.00,,,0.00,meteohub,2013-05-31 07:07:00,
2013-05-31 03:12:00,67.3,34.7,30.11,West,263,0.0,3.0,30,0.00,,,0.00,meteohub,2013-05-31 07:12:00,
2013-05-31 03:17:00,67.5,34.2,30.11,SW,231,0.0,3.0,29,0.00,,,0.00,meteohub,2013-05-31 07:17:00,
2013-05-31 03:22:00,67.3,33.1,30.11,SW,236,1.0,3.0,28,0.00,,,0.00,meteohub,2013-05-31 07:22:00,
2013-05-31 03:27:00,67.3,31.3,30.11,WSW,237,0.0,3.0,26,0.00,,,0.00,meteohub,2013-05-31 07:27:00,
2013-05-31 03:32:00,67.3,30.2,30.11,WSW,250,0.0,3.0,25,0.00,,,0.00,meteohub,2013-05-31 07:32:00,
2013-05-31 03:37:00,67.5,23.7,30.11,West,259,1.0,4.0,19,0.00,,,0.00,meteohub,2013-05-31 07:37:00,
2013-05-31 03:42:00,67.6,22.6,30.11,SW,233,1.0,4.0,18,0.00,,,0.00,meteohub,2013-05-31 07:42:00,
2013-05-31 03:47:00,67.6,23.9,30.11,WSW,251,0.0,4.0,19,0.00,,,0.00,meteohub,2013-05-31 07:47:00,
2013-05-31 03:52:00,67.5,27.3,30.11,West,276,1.0,4.0,22,0.00,,,0.00,meteohub,2013-05-31 07:52:00,
2013-05-31 03:57:00,67.6,29.5,30.11,West,266,1.0,4.0,24,0.00,,,0.00,meteohub,2013-05-31 07:57:00,
2013-05-31 04:02:00,67.6,29.5,30.11,WSW,250,2.0,4.0,24,0.00,,,0.00,meteohub,2013-05-31 08:02:00,
2013-05-31 04:07:00,67.6,28.6,30.11,SSW,204,2.0,4.0,23,0.00,,,0.00,meteohub,2013-05-31 08:07:00,
2013-05-31 04:12:00,67.8,25.3,30.12,WSW,245,0.0,4.0,20,0.00,,,0.00,meteohub,2013-05-31 08:12:00,
2013-05-31 04:17:00,67.8,28.6,30.12,SW,232,1.0,4.0,23,0.00,,,0.00,meteohub,2013-05-31 08:17:00,
2013-05-31 04:22:00,67.8,27.5,30.11,WSW,257,2.0,4.0,22,0.00,,,0.00,meteohub,2013-05-31 08:22:00,
2013-05-31 04:27:00,67.8,25.3,30.12,South,188,3.0,4.0,20,0.00,,,0.00,meteohub,2013-05-31 08:27:00,
2013-05-31 04:32:00,67.8,21.4,30.12,SW,218,1.0,5.0,17,0.00,,,0.00,meteohub,2013-05-31 08:32:00,
2013-05-31 04:37:00,68.0,20.1,30.12,SW,217,1.0,5.0,16,0.00,,,0.00,meteohub,2013-05-31 08:37:00,
2013-05-31 04:42:00,68.2,23.0,30.12,WSW,242,0.0,4.0,18,0.00,,,0.00,meteohub,2013-05-31 08:42:00,
2013-05-31 04:47:00,68.2,23.0,30.12,West,262,3.0,4.0,18,0.00,,,0.00,meteohub,2013-05-31 08:47:00,
2013-05-31 04:52:00,68.7,23.5,30.12,SW,231,3.0,4.0,18,0.00,,,0.00,meteohub,2013-05-31 08:52:00,
2013-05-31 04:57:00,69.3,29.8,30.12,WSW,238,3.0,4.0,23,0.00,,,0.00,meteohub,2013-05-31 08:57:00,
2013-05-31 05:02:00,69.4,36.7,30.12,SW,234,1.0,6.0,30,0.00,,,0.00,meteohub,2013-05-31 09:02:00,
2013-05-31 05:07:00,69.3,38.1,30.12,WSW,242,1.0,6.0,32,0.00,,,0.00,meteohub,2013-05-31 09:07:00,
2013-05-31 05:12:00,69.1,37.2,30.12,SW,233,0.0,6.0,31,0.00,,,0.00,meteohub,2013-05-31 09:12:00,
2013-05-31 05:17:00,69.1,35.4,30.12,West,264,0.0,4.0,29,0.00,,,0.00,meteohub,2013-05-31 09:17:00,
2013-05-31 05:22:00,68.7,34.3,30.12,West,271,0.0,4.0,28,0.00,,,0.00,meteohub,2013-05-31 09:22:00,
2013-05-31 05:27:00,68.7,32.4,30.12,West,278,0.0,4.0,26,0.00,,,0.00,meteohub,2013-05-31 09:27:00,
2013-05-31 05:32:00,68.5,30.4,30.12,West,278,0.0,3.0,24,0.00,,,0.00,meteohub,2013-05-31 09:32:00,
2013-05-31 05:37:00,68.5,25.9,30.12,West,278,0.0,1.0,20,0.00,,,0.00,meteohub,2013-05-31 09:37:00,
2013-05-31 05:42:00,68.5,25.9,30.12,West,278,0.0,1.0,20,0.00,,,0.00,meteohub,2013-05-31 09:42:00,
2013-05-31 05:47:00,68.5,24.6,30.12,West,278,0.0,1.0,19,0.00,,,0.00,meteohub,2013-05-31 09:47:00,
2013-05-31 05:52:00,68.5,25.9,30.12,SW,227,1.0,1.0,20,0.00,,,0.00,meteohub,2013-05-31 09:52:00,
2013-05-31 05:57:00,68.9,27.3,30.12,WSW,240,0.0,1.0,21,0.00,,,0.00,meteohub,2013-05-31 09:57:00,
2013-05-31 06:02:00,69.3,32.0,30.12,WSW,238,0.0,1.0,25,0.00,,,0.00,meteohub,2013-05-31 10:02:00,
2013-05-31 06:07:00,69.3,35.6,30.13,West,263,0.0,1.0,29,0.00,,,0.00,meteohub,2013-05-31 10:07:00,
2013-05-31 06:12:00,69.6,38.5,30.13,West,263,0.0,1.0,32,0.00,,,0.00,meteohub,2013-05-31 10:12:00,
2013-05-31 06:17:00,69.6,39.9,30.13,West,263,0.0,1.0,34,0.00,,,0.00,meteohub,2013-05-31 10:17:00,
2013-05-31 06:22:00,70.0,41.7,30.13,West,263,0.0,1.0,36,0.00,,,0.00,meteohub,2013-05-31 10:22:00,
2013-05-31 06:27:00,70.0,43.2,30.14,West,263,0.0,1.0,38,0.00,,,0.00,meteohub,2013-05-31 10:27:00,
2013-05-31 06:32:00,70.2,43.3,30.14,West,259,0.0,1.0,38,0.00,,,0.00,meteohub,2013-05-31 10:32:00,
2013-05-31 06:37:00,70.3,45.0,30.14,West,260,0.0,1.0,40,0.00,,,0.00,meteohub,2013-05-31 10:37:00,
2013-05-31 06:42:00,70.3,46.2,30.14,West,274,0.0,1.0,42,0.00,,,0.00,meteohub,2013-05-31 10:42:00,
2013-05-31 06:47:00,70.3,47.5,30.14,WNW,283,0.0,1.0,44,0.00,,,0.00,meteohub,2013-05-31 10:47:00,
2013-05-31 06:52:00,70.5,46.9,30.14,SW,236,1.0,2.0,43,0.00,,,0.00,meteohub,2013-05-31 10:52:00,
2013-05-31 06:57:00,70.5,48.2,30.14,West,260,1.0,2.0,45,0.00,,,0.00,meteohub,2013-05-31 10:57:00,
2013-05-31 07:02:00,70.7,47.7,30.14,WSW,245,1.0,3.0,44,0.00,,,0.00,meteohub,2013-05-31 11:02:00,
2013-05-31 07:07:00,70.9,47.8,30.14,SW,231,1.0,4.0,44,0.00,,,0.00,meteohub,2013-05-31 11:07:00,
2013-05-31 07:12:00,70.9,49.6,30.14,West,259,0.0,4.0,47,0.00,,,0.00,meteohub,2013-05-31 11:12:00,
2013-05-31 07:17:00,71.1,50.4,30.14,WSW,253,1.0,4.0,48,0.00,,,0.00,meteohub,2013-05-31 11:17:00,
2013-05-31 07:22:00,71.1,50.4,30.14,SSW,212,2.0,3.0,48,0.00,,,0.00,meteohub,2013-05-31 11:22:00,
2013-05-31 07:27:00,71.2,49.5,30.14,SW,236,3.0,3.0,46,0.00,,,0.00,meteohub,2013-05-31 11:27:00,
2013-05-31 07:32:00,71.4,48.9,30.14,SW,233,1.0,5.0,45,0.00,,,0.00,meteohub,2013-05-31 11:32:00,
2013-05-31 07:37:00,72.0,52.3,30.14,WSW,255,1.0,5.0,50,0.00,,,0.00,meteohub,2013-05-31 11:37:00,
2013-05-31 07:42:00,72.0,54.0,30.14,WSW,239,0.0,5.0,53,0.00,,,0.00,meteohub,2013-05-31 11:42:00,
2013-05-31 07:47:00,72.1,54.5,30.14,SW,229,0.0,4.0,54,0.00,,,0.00,meteohub,2013-05-31 11:47:00,
2013-05-31 07:52:00,72.5,54.3,30.14,SSW,198,1.0,4.0,53,0.00,,,0.00,meteohub,2013-05-31 11:52:00,
2013-05-31 07:57:00,72.9,56.3,30.14,WSW,246,1.0,3.0,56,0.00,,,0.00,meteohub,2013-05-31 11:57:00,
2013-05-31 08:02:00,73.2,57.6,30.15,WSW,248,1.0,3.0,58,0.00,,,0.00,meteohub,2013-05-31 12:02:00,
2013-05-31 08:07:00,73.8,57.6,30.15,SW,226,2.0,4.0,57,0.00,,,0.00,meteohub,2013-05-31 12:07:00,
2013-05-31 08:12:00,74.1,58.5,30.14,WSW,242,1.0,4.0,58,0.00,,,0.00,meteohub,2013-05-31 12:12:00,
2013-05-31 08:17:00,74.7,59.4,30.15,WNW,283,0.0,4.0,59,0.00,,,0.00,meteohub,2013-05-31 12:17:00,
2013-05-31 08:22:00,75.0,60.3,30.14,SSW,207,0.0,5.0,60,0.00,,,0.00,meteohub,2013-05-31 12:22:00,
2013-05-31 08:27:00,75.2,61.3,30.14,WSW,249,3.0,5.0,62,0.00,,,0.00,meteohub,2013-05-31 12:27:00,
2013-05-31 08:32:00,75.4,61.0,30.14,SW,233,2.0,5.0,61,0.00,,,0.00,meteohub,2013-05-31 12:32:00,
2013-05-31 08:37:00,75.6,61.7,30.14,West,273,2.0,4.0,62,0.00,,,0.00,meteohub,2013-05-31 12:37:00,
2013-05-31 08:42:00,75.6,61.7,30.14,WSW,253,3.0,5.0,62,0.00,,,0.00,meteohub,2013-05-31 12:42:00,
2013-05-31 08:47:00,75.7,61.9,30.14,WSW,253,2.0,5.0,62,0.00,,,0.00,meteohub,2013-05-31 12:47:00,
2013-05-31 08:52:00,75.7,62.8,30.14,SW,214,0.0,5.0,64,0.00,,,0.00,meteohub,2013-05-31 12:52:00,
2013-05-31 08:57:00,75.9,62.4,30.14,SW,228,3.0,5.0,63,0.00,,,0.00,meteohub,2013-05-31 12:57:00,
2013-05-31 09:02:00,76.3,62.2,30.14,West,268,1.0,5.0,62,0.00,,,0.00,meteohub,2013-05-31 13:02:00,
2013-05-31 09:07:00,76.3,62.8,30.14,WNW,285,1.0,5.0,63,0.00,,,0.00,meteohub,2013-05-31 13:07:00,
2013-05-31 09:12:00,76.3,62.2,30.14,West,273,1.0,5.0,62,0.00,,,0.00,meteohub,2013-05-31 13:12:00,
2013-05-31 09:17:00,76.3,62.2,30.14,West,276,0.0,4.0,62,0.00,,,0.00,meteohub,2013-05-31 13:17:00,
2013-05-31 09:22:00,76.5,62.4,30.14,West,263,0.0,4.0,62,0.00,,,0.00,meteohub,2013-05-31 13:22:00,
2013-05-31 09:27:00,76.5,63.0,30.14,West,274,1.0,4.0,63,0.00,,,0.00,meteohub,2013-05-31 13:27:00,
2013-05-31 09:32:00,76.5,63.0,30.14,WNW,284,1.0,4.0,63,0.00,,,0.00,meteohub,2013-05-31 13:32:00,
2013-05-31 09:37:00,76.3,62.8,30.14,West,278,2.0,4.0,63,0.00,,,0.00,meteohub,2013-05-31 13:37:00,
2013-05-31 09:42:00,76.3,62.8,30.14,WNW,283,1.0,4.0,63,0.00,,,0.00,meteohub,2013-05-31 13:42:00,
2013-05-31 09:47:00,76.3,63.1,30.14,WNW,289,1.0,4.0,64,0.00,,,0.00,meteohub,2013-05-31 13:47:00,
2013-05-31 09:52:00,75.9,62.8,30.14,WNW,296,1.0,3.0,64,0.00,,,0.00,meteohub,2013-05-31 13:52:00,
2013-05-31 09:57:00,76.3,62.8,30.14,West,276,1.0,3.0,63,0.00,,,0.00,meteohub,2013-05-31 13:57:00,
2013-05-31 10:02:00,76.5,62.1,30.13,WNW,297,1.0,4.0,61,0.00,,,0.00,meteohub,2013-05-31 14:02:00,
2013-05-31 10:07:00,76.8,62.4,30.13,WNW,298,1.0,4.0,61,0.00,,,0.00,meteohub,2013-05-31 14:07:00,
2013-05-31 10:12:00,76.5,63.9,30.13,NW,311,1.0,3.0,65,0.00,,,0.00,meteohub,2013-05-31 14:12:00,
2013-05-31 10:17:00,76.3,62.2,30.13,West,271,1.0,3.0,62,0.00,,,0.00,meteohub,2013-05-31 14:17:00,
2013-05-31 10:22:00,76.5,63.0,30.13,West,278,1.0,3.0,63,0.00,,,0.00,meteohub,2013-05-31 14:22:00,
2013-05-31 10:27:00,76.8,63.3,30.13,NW,308,2.0,2.0,63,0.00,,,0.00,meteohub,2013-05-31 14:27:00,
2013-05-31 10:32:00,77.2,63.1,30.13,NW,305,1.0,2.0,62,0.00,,,0.00,meteohub,2013-05-31 14:32:00,
2013-05-31 10:37:00,77.4,64.2,30.13,NW,314,1.0,2.0,64,0.00,,,0.00,meteohub,2013-05-31 14:37:00,
2013-05-31 10:42:00,77.4,63.9,30.13,WNW,285,1.0,3.0,63,0.00,,,0.00,meteohub,2013-05-31 14:42:00,
2013-05-31 10:47:00,77.2,64.9,30.13,NW,308,1.0,3.0,66,0.00,,,0.00,meteohub,2013-05-31 14:47:00,
2013-05-31 10:52:00,77.4,63.9,30.13,NW,308,1.0,3.0,63,0.00,,,0.00,meteohub,2013-05-31 14:52:00,
2013-05-31 10:57:00,77.5,64.4,30.13,NNW,328,2.0,2.0,64,0.00,,,0.00,meteohub,2013-05-31 14:57:00,
2013-05-31 11:02:00,77.4,64.8,30.13,WNW,295,1.0,2.0,65,0.00,,,0.00,meteohub,2013-05-31 15:02:00,
2013-05-31 11:07:00,77.7,64.0,30.13,NW,318,1.0,3.0,63,0.00,,,0.00,meteohub,2013-05-31 15:07:00,
2013-05-31 11:12:00,78.1,65.3,30.13,NW,316,1.0,3.0,65,0.00,,,0.00,meteohub,2013-05-31 15:12:00,
2013-05-31 11:17:00,78.1,64.4,30.13,NW,310,1.0,2.0,63,0.00,,,0.00,meteohub,2013-05-31 15:17:00,
2013-05-31 11:22:00,78.1,64.9,30.12,North,9,2.0,3.0,64,0.00,,,0.00,meteohub,2013-05-31 15:22:00,
2013-05-31 11:27:00,78.1,65.3,30.12,NNW,335,2.0,3.0,65,0.00,,,0.00,meteohub,2013-05-31 15:27:00,
2013-05-31 11:32:00,77.9,65.7,30.12,NW,325,1.0,3.0,66,0.00,,,0.00,meteohub,2013-05-31 15:32:00,
2013-05-31 11:37:00,77.7,64.6,30.12,North,6,1.0,3.0,64,0.00,,,0.00,meteohub,2013-05-31 15:37:00,
2013-05-31 11:42:00,78.1,65.3,30.12,North,354,1.0,2.0,65,0.00,,,0.00,meteohub,2013-05-31 15:42:00,
2013-05-31 11:47:00,78.3,66.0,30.12,NW,322,1.0,2.0,66,0.00,,,0.00,meteohub,2013-05-31 15:47:00,
2013-05-31 11:52:00,78.8,66.6,30.12,NW,319,1.0,2.0,66,0.00,,,0.00,meteohub,2013-05-31 15:52:00,
2013-05-31 11:58:00,79.3,66.9,30.12,WNW,301,0.0,2.0,66,0.00,,,0.00,meteohub,2013-05-31 15:58:00,
2013-05-31 12:03:00,80.2,67.5,30.12,NW,311,0.0,2.0,65,0.00,,,0.00,meteohub,2013-05-31 16:03:00,
2013-05-31 12:08:00,81.0,68.5,30.12,WNW,297,1.0,2.0,66,0.00,,,0.00,meteohub,2013-05-31 16:08:00,
2013-05-31 12:13:00,81.0,68.9,30.12,WNW,293,1.0,2.0,67,0.00,,,0.00,meteohub,2013-05-31 16:13:00,
2013-05-31 12:18:00,81.0,68.9,30.12,WNW,285,0.0,3.0,67,0.00,,,0.00,meteohub,2013-05-31 16:18:00,
2013-05-31 12:23:00,81.0,68.5,30.12,NW,308,1.0,3.0,66,0.00,,,0.00,meteohub,2013-05-31 16:23:00,
2013-05-31 12:28:00,81.3,69.3,30.12,NW,326,1.0,3.0,67,0.00,,,0.00,meteohub,2013-05-31 16:28:00,
2013-05-31 12:33:00,81.7,69.3,30.12,NW,322,0.0,2.0,66,0.00,,,0.00,meteohub,2013-05-31 16:33:00,
2013-05-31 12:38:00,81.9,69.4,30.11,WNW,301,0.0,2.0,66,0.00,,,0.00,meteohub,2013-05-31 16:38:00,
2013-05-31 12:43:00,81.9,69.8,30.11,NW,318,1.0,2.0,67,0.00,,,0.00,meteohub,2013-05-31 16:43:00,
2013-05-31 12:48:00,81.9,69.8,30.11,West,262,1.0,2.0,67,0.00,,,0.00,meteohub,2013-05-31 16:48:00,
2013-05-31 12:53:00,82.4,70.3,30.11,NNW,342,1.0,2.0,67,0.00,,,0.00,meteohub,2013-05-31 16:53:00,
2013-05-31 12:58:00,82.8,70.7,30.11,NW,319,1.0,2.0,67,0.00,,,0.00,meteohub,2013-05-31 16:58:00,
2013-05-31 13:03:00,83.5,70.9,30.10,NW,304,2.0,2.0,66,0.00,,,0.00,meteohub,2013-05-31 17:03:00,
2013-05-31 13:08:00,83.7,69.8,30.10,NW,318,1.0,2.0,63,0.00,,,0.00,meteohub,2013-05-31 17:08:00,
2013-05-31 13:13:00,84.2,70.2,30.10,NW,319,2.0,2.0,63,0.00,,,0.00,meteohub,2013-05-31 17:13:00,
2013-05-31 13:18:00,84.7,70.7,30.10,NW,311,1.0,2.0,63,0.00,,,0.00,meteohub,2013-05-31 17:18:00,
2013-05-31 13:23:00,84.7,69.8,30.10,WNW,285,0.0,2.0,61,0.00,,,0.00,meteohub,2013-05-31 17:23:00,
2013-05-31 13:28:00,85.1,72.0,30.10,NW,310,0.0,2.0,65,0.00,,,0.00,meteohub,2013-05-31 17:28:00,
2013-05-31 13:33:00,85.5,70.9,30.10,NW,307,0.0,2.0,62,0.00,,,0.00,meteohub,2013-05-31 17:33:00,
2013-05-31 13:38:00,85.5,70.5,30.09,West,281,2.0,2.0,61,0.00,,,0.00,meteohub,2013-05-31 17:38:00,
2013-05-31 13:43:00,85.1,70.2,30.09,West,280,1.0,2.0,61,0.00,,,0.00,meteohub,2013-05-31 17:43:00,
2013-05-31 13:48:00,84.6,70.2,30.09,WNW,287,1.0,3.0,62,0.00,,,0.00,meteohub,2013-05-31 17:48:00,
2013-05-31 13:53:00,84.7,70.7,30.09,NW,322,0.0,3.0,63,0.00,,,0.00,meteohub,2013-05-31 17:53:00,
2013-05-31 13:58:00,85.3,70.7,30.09,NW,322,0.0,3.0,62,0.00,,,0.00,meteohub,2013-05-31 17:58:00,
2013-05-31 14:03:00,85.5,70.9,30.09,NNW,330,0.0,2.0,62,0.00,,,0.00,meteohub,2013-05-31 18:03:00,
2013-05-31 14:08:00,84.9,71.4,30.08,NW,315,1.0,2.0,64,0.00,,,0.00,meteohub,2013-05-31 18:08:00,
2013-05-31 14:13:00,85.1,71.6,30.09,WNW,297,1.0,2.0,64,0.00,,,0.00,meteohub,2013-05-31 18:13:00,
2013-05-31 14:18:00,85.6,71.6,30.08,WSW,253,1.0,2.0,63,0.00,,,0.00,meteohub,2013-05-31 18:18:00,
2013-05-31 14:23:00,85.8,72.1,30.08,WNW,302,1.0,3.0,64,0.00,,,0.00,meteohub,2013-05-31 18:23:00,
2013-05-31 14:28:00,86.2,72.1,30.08,NW,312,1.0,3.0,63,0.00,,,0.00,meteohub,2013-05-31 18:28:00,
2013-05-31 14:33:00,86.4,72.3,30.08,WNW,294,0.0,3.0,63,0.00,,,0.00,meteohub,2013-05-31 18:33:00,
2013-05-31 14:38:00,86.9,72.9,30.08,NNW,332,1.0,3.0,63,0.00,,,0.00,meteohub,2013-05-31 18:38:00,
2013-05-31 14:43:00,86.7,72.1,30.08,NNW,342,0.0,3.0,62,0.00,,,0.00,meteohub,2013-05-31 18:43:00,
2013-05-31 14:48:00,87.4,72.9,30.08,SSE,159,0.0,3.0,62,0.00,,,0.00,meteohub,2013-05-31 18:48:00,
2013-05-31 14:53:00,88.5,72.3,30.08,South,178,2.0,8.0,59,0.00,,,0.00,meteohub,2013-05-31 18:53:00,
2013-05-31 14:58:00,89.1,71.8,30.08,ESE,113,3.0,12.0,57,0.00,,,0.00,meteohub,2013-05-31 18:58:00,
2013-05-31 15:03:00,89.2,71.4,30.07,SW,230,5.0,13.0,56,0.00,,,0.00,meteohub,2013-05-31 19:03:00,
2013-05-31 15:08:00,89.2,71.4,30.07,SE,130,3.0,13.0,56,0.00,,,0.00,meteohub,2013-05-31 19:08:00,
2013-05-31 15:13:00,89.2,72.0,30.07,SSW,205,3.0,13.0,57,0.00,,,0.00,meteohub,2013-05-31 19:13:00,
2013-05-31 15:18:00,89.4,71.6,30.07,West,280,1.0,12.0,56,0.00,,,0.00,meteohub,2013-05-31 19:18:00,
2013-05-31 15:23:00,89.2,72.5,30.07,SSW,197,1.0,12.0,58,0.00,,,0.00,meteohub,2013-05-31 19:23:00,
2013-05-31 15:28:00,90.1,72.3,30.07,WNW,295,2.0,9.0,56,0.00,,,0.00,meteohub,2013-05-31 19:28:00,
2013-05-31 15:33:00,90.3,72.5,30.07,WSW,246,9.0,9.0,56,0.00,,,0.00,meteohub,2013-05-31 19:33:00,
2013-05-31 15:38:00,90.1,71.8,30.06,South,170,2.0,9.0,55,0.00,,,0.00,meteohub,2013-05-31 19:38:00,
2013-05-31 15:43:00,90.0,70.5,30.07,WSW,246,7.0,10.0,53,0.00,,,0.00,meteohub,2013-05-31 19:43:00,
2013-05-31 15:48:00,90.3,72.0,30.06,WNW,283,2.0,10.0,55,0.00,,,0.00,meteohub,2013-05-31 19:48:00,
2013-05-31 15:53:00,90.3,71.4,30.06,SSW,198,2.0,10.0,54,0.00,,,0.00,meteohub,2013-05-31 19:53:00,
2013-05-31 15:58:00,90.1,68.9,30.06,WNW,285,3.0,9.0,50,0.00,,,0.00,meteohub,2013-05-31 19:58:00,
2013-05-31 16:03:00,89.6,68.5,30.06,WSW,247,9.0,11.0,50,0.00,,,0.00,meteohub,2013-05-31 20:03:00,
2013-05-31 16:08:00,89.2,68.7,30.06,NW,310,1.0,13.0,51,0.00,,,0.00,meteohub,2013-05-31 20:08:00,
2013-05-31 16:13:00,89.2,69.8,30.06,WSW,252,2.0,13.0,53,0.00,,,0.00,meteohub,2013-05-31 20:13:00,
2013-05-31 16:18:00,89.2,69.8,30.06,ESE,112,3.0,13.0,53,0.00,,,0.00,meteohub,2013-05-31 20:18:00,
2013-05-31 16:23:00,89.2,69.3,30.06,SW,229,3.0,12.0,52,0.00,,,0.00,meteohub,2013-05-31 20:23:00,
2013-05-31 16:28:00,89.2,69.3,30.06,SSW,210,4.0,11.0,52,0.00,,,0.00,meteohub,2013-05-31 20:28:00,
2013-05-31 16:33:00,89.4,68.4,30.06,WNW,283,2.0,10.0,50,0.00,,,0.00,meteohub,2013-05-31 20:33:00,
2013-05-31 16:38:00,89.1,66.7,30.06,SE,134,5.0,13.0,48,0.00,,,0.00,meteohub,2013-05-31 20:38:00,
2013-05-31 16:43:00,88.7,67.1,30.05,SSE,155,6.0,13.0,49,0.00,,,0.00,meteohub,2013-05-31 20:43:00,
2013-05-31 16:48:00,88.5,67.5,30.06,SW,228,1.0,13.0,50,0.00,,,0.00,meteohub,2013-05-31 20:48:00,
2013-05-31 16:53:00,88.2,68.9,30.06,West,266,2.0,11.0,53,0.00,,,0.00,meteohub,2013-05-31 20:53:00,
2013-05-31 16:58:00,88.2,69.4,30.05,WSW,245,4.0,8.0,54,0.00,,,0.00,meteohub,2013-05-31 20:58:00,
2013-05-31 17:03:00,88.0,69.3,30.06,SSW,204,5.0,8.0,54,0.00,,,0.00,meteohub,2013-05-31 21:03:00,
2013-05-31 17:08:00,87.6,69.4,30.06,SSE,153,2.0,9.0,55,0.00,,,0.00,meteohub,2013-05-31 21:08:00,
2013-05-31 17:13:00,87.3,70.2,30.06,SE,128,1.0,9.0,57,0.00,,,0.00,meteohub,2013-05-31 21:13:00,
2013-05-31 17:18:00,86.7,69.6,30.05,SSW,198,3.0,9.0,57,0.00,,,0.00,meteohub,2013-05-31 21:18:00,
2013-05-31 17:23:00,86.5,68.9,30.05,SW,224,5.0,10.0,56,0.00,,,0.00,meteohub,2013-05-31 21:23:00,
2013-05-31 17:28:00,86.2,68.2,30.05,SSW,193,4.0,10.0,55,0.00,,,0.00,meteohub,2013-05-31 21:28:00,
2013-05-31 17:33:00,85.6,68.2,30.05,SW,224,5.0,10.0,56,0.00,,,0.00,meteohub,2013-05-31 21:33:00,
2013-05-31 17:38:00,84.7,67.8,30.05,SSE,151,5.0,10.0,57,0.00,,,0.00,meteohub,2013-05-31 21:38:00,
2013-05-31 17:43:00,84.4,68.0,30.04,South,176,2.0,13.0,58,0.00,,,0.00,meteohub,2013-05-31 21:43:00,
2013-05-31 17:48:00,84.0,66.6,30.05,SSE,167,6.0,13.0,56,0.00,,,0.00,meteohub,2013-05-31 21:48:00,
2013-05-31 17:53:00,84.0,67.6,30.05,WSW,237,8.0,11.0,58,0.00,,,0.00,meteohub,2013-05-31 21:53:00,
2013-05-31 17:58:00,84.0,66.2,30.05,SW,229,4.0,11.0,55,0.00,,,0.00,meteohub,2013-05-31 21:58:00,
2013-05-31 18:03:00,83.8,64.9,30.04,SSW,205,5.0,13.0,53,0.00,,,0.00,meteohub,2013-05-31 22:03:00,
2013-05-31 18:08:00,83.5,65.7,30.04,SW,216,2.0,13.0,55,0.00,,,0.00,meteohub,2013-05-31 22:08:00,
2013-05-31 18:13:00,82.9,65.1,30.04,SW,223,2.0,13.0,55,0.00,,,0.00,meteohub,2013-05-31 22:13:00,
2013-05-31 18:18:00,82.6,64.2,30.04,West,280,2.0,13.0,54,0.00,,,0.00,meteohub,2013-05-31 22:18:00,
2013-05-31 18:23:00,82.6,65.3,30.03,WSW,242,3.0,12.0,56,0.00,,,0.00,meteohub,2013-05-31 22:23:00,
2013-05-31 18:28:00,82.0,64.8,30.03,SSW,193,1.0,11.0,56,0.00,,,0.00,meteohub,2013-05-31 22:28:00,
2013-05-31 18:33:00,81.9,65.7,30.03,SSE,160,6.0,9.0,58,0.00,,,0.00,meteohub,2013-05-31 22:33:00,
2013-05-31 18:38:00,81.5,65.8,30.03,South,191,2.0,8.0,59,0.00,,,0.00,meteohub,2013-05-31 22:38:00,
2013-05-31 18:43:00,81.0,65.8,30.03,ESE,109,6.0,10.0,60,0.00,,,0.00,meteohub,2013-05-31 22:43:00,
2013-05-31 18:48:00,80.8,66.0,30.03,SW,236,5.0,13.0,61,0.00,,,0.00,meteohub,2013-05-31 22:48:00,
2013-05-31 18:53:00,80.2,65.5,30.03,SSW,211,6.0,13.0,61,0.00,,,0.00,meteohub,2013-05-31 22:53:00,
2013-05-31 18:58:00,79.9,65.7,30.03,South,186,1.0,13.0,62,0.00,,,0.00,meteohub,2013-05-31 22:58:00,
2013-05-31 19:03:00,79.5,65.8,30.03,SW,214,4.0,13.0,63,0.00,,,0.00,meteohub,2013-05-31 23:03:00,
2013-05-31 19:09:00,79.2,65.5,30.03,WSW,255,7.0,13.0,63,0.00,,,0.00,meteohub,2013-05-31 23:09:00,
2013-05-31 19:14:00,79.0,65.8,30.03,NW,316,3.0,17.0,64,0.00,,,0.00,meteohub,2013-05-31 23:14:00,
2013-05-31 19:19:00,78.6,65.5,30.02,South,180,3.0,17.0,64,0.00,,,0.00,meteohub,2013-05-31 23:19:00,
2013-05-31 19:24:00,78.4,65.7,30.02,South,190,5.0,17.0,65,0.00,,,0.00,meteohub,2013-05-31 23:24:00,
2013-05-31 19:29:00,78.3,65.5,30.02,WNW,293,3.0,14.0,65,0.00,,,0.00,meteohub,2013-05-31 23:29:00,
2013-05-31 19:34:00,78.1,65.8,30.02,SW,222,3.0,14.0,66,0.00,,,0.00,meteohub,2013-05-31 23:34:00,
2013-05-31 19:39:00,77.5,65.3,30.02,SSW,207,6.0,14.0,66,0.00,,,0.00,meteohub,2013-05-31 23:39:00,
2013-05-31 19:44:00,77.2,65.3,30.02,South,169,6.0,11.0,67,0.00,,,0.00,meteohub,2013-05-31 23:44:00,
2013-05-31 19:49:00,76.6,64.9,30.02,ENE,71,2.0,11.0,67,0.00,,,0.00,meteohub,2013-05-31 23:49:00,
2013-05-31 19:54:00,76.3,64.9,30.02,SSE,159,4.0,14.0,68,0.00,,,0.00,meteohub,2013-05-31 23:54:00,
2013-05-31 19:59:00,75.7,64.4,30.02,SSE,166,8.0,14.0,68,0.00,,,0.00,meteohub,2013-05-31 23:59:00,
2013-05-31 20:04:00,75.4,64.0,30.02,SW,225,12.0,14.0,68,0.00,,,0.00,meteohub,2013-06-01 00:04:00,
2013-05-31 20:09:00,75.0,63.7,30.02,South,191,6.0,13.0,68,0.00,,,0.00,meteohub,2013-06-01 00:09:00,
2013-05-31 20:14:00,74.8,63.1,30.02,WNW,291,2.0,13.0,67,0.00,,,0.00,meteohub,2013-06-01 00:14:00,
2013-05-31 20:19:00,74.7,63.0,30.02,SSE,164,3.0,14.0,67,0.00,,,0.00,meteohub,2013-06-01 00:19:00,
2013-05-31 20:24:00,74.5,62.8,30.01,SSE,165,11.0,14.0,67,0.00,,,0.00,meteohub,2013-06-01 00:24:00,
2013-05-31 20:29:00,74.1,62.4,30.02,WSW,256,3.0,22.0,67,0.00,,,0.00,meteohub,2013-06-01 00:29:00,
2013-05-31 20:34:00,73.9,62.2,30.02,SSE,164,6.0,22.0,67,0.00,,,0.00,meteohub,2013-06-01 00:34:00,
2013-05-31 20:39:00,73.9,62.2,30.02,SE,131,6.0,22.0,67,0.00,,,0.00,meteohub,2013-06-01 00:39:00,
2013-05-31 20:44:00,73.8,62.1,30.02,SSW,198,4.0,15.0,67,0.00,,,0.00,meteohub,2013-06-01 00:44:00,
2013-05-31 20:49:00,73.6,61.9,30.02,SSW,197,4.0,15.0,67,0.00,,,0.00,meteohub,2013-06-01 00:49:00,
2013-05-31 20:54:00,73.4,61.7,30.02,ESE,105,5.0,15.0,67,0.00,,,0.00,meteohub,2013-06-01 00:54:00,
2013-05-31 20:59:00,73.2,61.5,30.02,SSE,154,3.0,16.0,67,0.00,,,0.00,meteohub,2013-06-01 00:59:00,
2013-05-31 21:04:00,73.0,61.5,30.02,WSW,251,8.0,16.0,67,0.00,,,0.00,meteohub,2013-06-01 01:04:00,
2013-05-31 21:09:00,73.0,61.5,30.02,South,170,7.0,16.0,67,0.00,,,0.00,meteohub,2013-06-01 01:09:00,
2013-05-31 21:14:00,72.9,61.3,30.03,South,174,2.0,16.0,67,0.00,,,0.00,meteohub,2013-06-01 01:14:00,
2013-05-31 21:19:00,72.7,60.6,30.03,SSW,205,8.0,15.0,66,0.00,,,0.00,meteohub,2013-06-01 01:19:00,
2013-05-31 21:24:00,72.5,60.4,30.03,SW,228,5.0,15.0,66,0.00,,,0.00,meteohub,2013-06-01 01:24:00,
2013-05-31 21:29:00,72.3,60.3,30.04,SSW,204,3.0,13.0,66,0.00,,,0.00,meteohub,2013-06-01 01:29:00,
2013-05-31 21:34:00,72.3,60.3,30.04,South,173,2.0,13.0,66,0.00,,,0.00,meteohub,2013-06-01 01:34:00,
2013-05-31 21:39:00,72.3,60.3,30.04,NW,307,3.0,15.0,66,0.00,,,0.00,meteohub,2013-06-01 01:39:00,
2013-05-31 21:44:00,72.1,60.1,30.04,SSE,148,5.0,17.0,66,0.00,,,0.00,meteohub,2013-06-01 01:44:00,
2013-05-31 21:49:00,72.1,60.1,30.04,WSW,258,5.0,17.0,66,0.00,,,0.00,meteohub,2013-06-01 01:49:00,
2013-05-31 21:54:00,72.1,60.1,30.04,SSW,204,2.0,17.0,66,0.00,,,0.00,meteohub,2013-06-01 01:54:00,
2013-05-31 21:59:00,72.1,60.1,30.04,SE,131,5.0,15.0,66,0.00,,,0.00,meteohub,2013-06-01 01:59:00,
2013-05-31 22:04:00,72.1,60.1,30.04,SW,220,10.0,12.0,66,0.00,,,0.00,meteohub,2013-06-01 02:04:00,
2013-05-31 22:09:00,72.1,60.1,30.04,ESE,112,4.0,13.0,66,0.00,,,0.00,meteohub,2013-06-01 02:09:00,
2013-05-31 22:14:00,72.1,60.1,30.04,WSW,248,5.0,13.0,66,0.00,,,0.00,meteohub,2013-06-01 02:14:00,
2013-05-31 22:19:00,72.1,60.1,30.04,ESE,103,5.0,14.0,66,0.00,,,0.00,meteohub,2013-06-01 02:19:00,
2013-05-31 22:24:00,72.1,60.1,30.04,South,186,4.0,15.0,66,0.00,,,0.00,meteohub,2013-06-01 02:24:00,
2013-05-31 22:29:00,72.1,60.1,30.04,SSW,200,11.0,15.0,66,0.00,,,0.00,meteohub,2013-06-01 02:29:00,
2013-05-31 22:34:00,72.1,60.1,30.04,East,82,6.0,15.0,66,0.00,,,0.00,meteohub,2013-06-01 02:34:00,
2013-05-31 22:39:00,72.1,60.1,30.04,ENE,72,4.0,13.0,66,0.00,,,0.00,meteohub,2013-06-01 02:39:00,
2013-05-31 22:44:00,72.3,60.3,30.04,SSW,210,6.0,13.0,66,0.00,,,0.00,meteohub,2013-06-01 02:44:00,
2013-05-31 22:49:00,72.3,60.3,30.04,South,184,3.0,13.0,66,0.00,,,0.00,meteohub,2013-06-01 02:49:00,
2013-05-31 22:54:00,72.3,60.3,30.04,SSW,210,6.0,12.0,66,0.00,,,0.00,meteohub,2013-06-01 02:54:00,
2013-05-31 22:59:00,72.5,60.4,30.04,South,184,2.0,10.0,66,0.00,,,0.00,meteohub,2013-06-01 02:59:00,
2013-05-31 23:04:00,72.7,60.6,30.04,South,172,1.0,14.0,66,0.00,,,0.00,meteohub,2013-06-01 03:04:00,
2013-05-31 23:09:00,72.7,61.2,30.04,SSE,164,4.0,14.0,67,0.00,,,0.00,meteohub,2013-06-01 03:09:00,
2013-05-31 23:14:00,72.7,61.2,30.04,SSW,200,3.0,14.0,67,0.00,,,0.00,meteohub,2013-06-01 03:14:00,
2013-05-31 23:19:00,72.9,61.3,30.04,SW,231,4.0,11.0,67,0.00,,,0.00,meteohub,2013-06-01 03:19:00,
2013-05-31 23:24:00,73.0,61.9,30.04,WSW,241,2.0,9.0,68,0.00,,,0.00,meteohub,2013-06-01 03:24:00,
2013-05-31 23:29:00,73.2,62.1,30.04,SW,217,2.0,12.0,68,0.00,,,0.00,meteohub,2013-06-01 03:29:00,
2013-05-31 23:34:00,73.2,62.1,30.04,South,169,4.0,12.0,68,0.00,,,0.00,meteohub,2013-06-01 03:34:00,
2013-05-31 23:39:00,73.2,62.1,30.04,SE,141,3.0,12.0,68,0.00,,,0.00,meteohub,2013-06-01 03:39:00,
2013-05-31 23:44:00,73.2,62.1,30.04,SE,146,3.0,11.0,68,0.00,,,0.00,meteohub,2013-06-01 03:44:00,
2013-05-31 23:49:00,73.2,62.1,30.04,SE,142,3.0,11.0,68,0.00,,,0.00,meteohub,2013-06-01 03:49:00,
2013-05-31 23:54:00,73.0,61.9,30.04,South,178,6.0,11.0,68,0.00,,,0.00,meteohub,2013-06-01 03:54:00,
2013-05-31 23:59:00,73.0,61.5,30.04,SSW,210,4.0,11.0,67,0.00,,,0.00,meteohub,2013-06-01 03:59:00,